DW5481 Weather Reports


time (UTC)temp
F
wind
direction
speed
knots
gust
knots
rain 1hr
in
rain 24hr
in
rain mn
in
humidity
%
barometer
mb
20260504174603 81 90 5.2 10.4 0.00 0.00 0.00 17 1003.7
20260504174103 80 316 4.3 11.3 0.00 0.00 0.00 16 1003.7
20260504173602 80 323 7.8 11.3 0.00 0.00 0.00 16 1003.7
20260504173103 80 332 6.1 13.0 0.00 0.00 0.00 18 1003.8
20260504172603 79 320 6.1 15.6 0.00 0.00 0.00 17 1003.8
20260504172103 80 27 5.2 11.3 0.00 0.00 0.00 17 1003.8
20260504171603 79 314 4.3 10.4 0.00 0.00 0.00 17 1003.8
20260504171102 79 312 5.2 11.3 0.00 0.00 0.00 19 1003.8
20260504170602 79 314 6.1 14.8 0.00 0.00 0.00 19 1003.9
20260504151102 68 289 5.2 8.7 0.00 0.00 0.00 37 1004.5
20260504150603 67 289 6.1 11.3 0.00 0.00 0.00 38 1004.6
20260504141103 62 301 8.7 10.4 0.00 0.00 0.00 44 1004.7
20260504140602 61 304 6.1 11.3 0.00 0.00 0.00 45 1004.7
20260504130603 54 323 6.1 11.3 0.00 0.00 0.00 56 1004.5
20260504100603 54 120 0.0 0.9 0.00 0.00 0.00 52 1003.7
20260504100103 54 120 0.0 0.0 0.00 0.00 0.00 51 1003.7
20260504081602 58 120 4.3 7.8 0.00 0.00 0.00 43 1004.2
20260504081103 59 120 6.1 11.3 0.00 0.00 0.00 43 1004.3
20260504080603 59 105 3.5 8.7 0.00 0.00 0.00 41 1004.4
20260504060103 58 49 0.0 1.7 0.00 0.00 0.00 39 1006.7
20260504050603 59 49 0.9 2.6 0.00 0.00 0.00 38 1007.3
20260504045603 59 49 0.0 0.9 0.00 0.00 0.00 38 1007.3
20260504045103 59 49 0.0 0.9 0.00 0.00 0.00 38 1007.3
20260504044603 59 49 0.0 0.9 0.00 0.00 0.00 39 1007.4
20260504044102 59 49 0.0 2.6 0.00 0.00 0.00 39 1007.5
20260504043603 59 49 0.0 0.0 0.00 0.00 0.00 39 1007.5
20260504043102 60 49 0.0 0.0 0.00 0.00 0.00 39 1007.5
20260504042603 60 49 0.0 0.0 0.00 0.00 0.00 37 1007.5
20260504042103 60 49 0.0 0.0 0.00 0.00 0.00 37 1007.5
20260504041603 61 49 0.0 0.0 0.00 0.00 0.00 37 1007.6
20260504041103 61 49 0.0 0.9 0.00 0.00 0.00 37 1007.6
20260504040603 61 49 0.0 0.9 0.00 0.00 0.00 37 1007.6
20260504040103 61 49 0.9 2.6 0.00 0.00 0.00 37 1007.7
20260504035602 61 49 1.7 2.6 0.00 0.00 0.00 37 1007.9
20260504035103 61 49 0.9 1.7 0.00 0.00 0.00 37 1007.9
20260504034604 61 49 1.7 2.6 0.00 0.00 0.00 36 1008.0
20260504034103 61 49 0.9 2.6 0.00 0.00 0.00 37 1008.0
20260504033603 61 49 0.9 2.6 0.00 0.00 0.00 37 1008.1
20260504033103 61 49 0.9 1.7 0.00 0.00 0.00 37 1008.2
20260504032603 61 49 0.0 0.0 0.00 0.00 0.00 38 1008.2
20260504032103 61 49 0.0 1.7 0.00 0.00 0.00 38 1008.2
20260504031603 61 49 0.0 0.9 0.00 0.00 0.00 38 1008.3
20260504031103 62 49 0.9 4.3 0.00 0.00 0.00 38 1008.3
20260504030603 62 48 0.0 0.9 0.00 0.00 0.00 38 1008.3
20260504025603 63 48 0.0 0.0 0.00 0.00 0.00 38 1008.3
20260504025103 63 48 0.0 0.9 0.00 0.00 0.00 38 1008.3
20260504024603 63 48 0.0 0.9 0.00 0.00 0.00 37 1008.4
20260504024103 64 48 0.9 1.7 0.00 0.00 0.00 37 1008.3
20260504023603 64 48 0.9 1.7 0.00 0.00 0.00 37 1008.3
20260504022603 65 48 0.0 1.7 0.00 0.00 0.00 36 1008.4
20260504021603 66 49 1.7 4.3 0.00 0.00 0.00 35 1008.3
20260504020603 66 49 1.7 2.6 0.00 0.00 0.00 34 1008.3
20260504020103 67 48 2.6 5.2 0.00 0.00 0.00 33 1008.2
20260504015602 67 48 2.6 6.1 0.00 0.00 0.00 32 1008.3
20260504015103 68 49 2.6 4.3 0.00 0.00 0.00 32 1008.2
20260504014103 69 49 1.7 4.3 0.00 0.00 0.00 30 1008.2
20260504013603 69 49 1.7 5.2 0.00 0.00 0.00 30 1008.1
20260504012604 69 49 1.7 2.6 0.00 0.00 0.00 29 1008.2
20260504012102 70 49 0.0 1.7 0.00 0.00 0.00 29 1008.1
20260504011603 70 49 0.9 1.7 0.00 0.00 0.00 28 1008.1
20260504011103 70 49 1.7 5.2 0.00 0.00 0.00 28 1008.2
20260504005603 71 49 0.9 2.6 0.00 0.00 0.00 28 1008.4
20260504005103 71 49 0.9 2.6 0.00 0.00 0.00 27 1008.5
20260504004603 72 49 0.9 4.3 0.00 0.00 0.00 27 1008.5
20260504004103 72 49 1.7 4.3 0.00 0.00 0.00 26 1008.6
20260504003604 72 49 1.7 5.2 0.00 0.00 0.00 25 1008.6
20260504003103 73 49 0.9 5.2 0.00 0.00 0.00 24 1008.6
20260504002602 73 49 1.7 6.1 0.00 0.00 0.00 24 1008.7
20260504002103 73 49 1.7 5.2 0.00 0.00 0.00 24 1008.7
20260504001602 73 49 2.6 5.2 0.00 0.00 0.00 24 1008.9
20260504001103 73 49 3.5 6.1 0.00 0.00 0.00 24 1008.9
20260504000603 73 49 3.5 6.1 0.00 0.00 0.00 25 1009.0
20260503235602 73 50 4.3 7.0 0.00 0.00 0.00 24 1009.0
20260503235103 73 50 2.6 7.0 0.00 0.00 0.00 24 1009.0
20260503234603 73 49 5.2 7.0 0.00 0.00 0.00 24 1009.0
20260503234103 73 49 2.6 6.1 0.00 0.00 0.00 25 1009.0
20260503233603 73 50 3.5 6.1 0.00 0.00 0.00 23 1009.1
20260503232603 74 51 5.2 10.4 0.00 0.00 0.00 24 1009.2
20260503232103 74 51 2.6 7.0 0.00 0.00 0.00 25 1009.3
20260503231603 74 51 4.3 10.4 0.00 0.00 0.00 23 1009.3
20260503231103 74 53 5.2 10.4 0.00 0.00 0.00 23 1009.3
20260503230603 75 55 5.2 10.4 0.00 0.00 0.00 22 1009.4
20260503230103 75 58 4.3 5.2 0.00 0.00 0.00 21 1009.4
20260503225602 75 58 0.9 2.6 0.00 0.00 0.00 22 1009.4
20260503225103 75 58 1.7 4.3 0.00 0.00 0.00 20 1009.4
20260503224603 75 58 2.6 7.0 0.00 0.00 0.00 22 1009.4
20260503224103 76 59 4.3 7.0 0.00 0.00 0.00 22 1009.5
20260503223603 76 59 5.2 11.3 0.00 0.00 0.00 22 1009.5
20260503223103 76 70 4.3 10.4 0.00 0.00 0.00 21 1009.6
20260503222603 76 71 5.2 7.8 0.00 0.00 0.00 22 1009.6
20260503222103 76 73 4.3 11.3 0.00 0.00 0.00 21 1009.6
20260503221603 77 53 2.6 7.0 0.00 0.00 0.00 21 1009.7
20260503221103 77 52 1.7 6.1 0.00 0.00 0.00 23 1009.6
20260503220603 76 68 1.7 5.2 0.00 0.00 0.00 20 1009.8
20260503215603 77 74 1.7 4.3 0.00 0.00 0.00 19 1009.8
20260503215103 77 78 1.7 5.2 0.00 0.00 0.00 21 1010.0
20260503214603 77 79 5.2 7.8 0.00 0.00 0.00 22 1010.1
20260503214103 76 83 0.0 10.4 0.00 0.00 0.00 22 1010.2
20260503213603 76 75 1.7 5.2 0.00 0.00 0.00 22 1010.3
20260503213103 76 72 5.2 10.4 0.00 0.00 0.00 20 1010.3
20260503212103 76 92 2.6 7.0 0.00 0.00 0.00 23 1010.4
20260503211603 75 99 0.9 6.1 0.00 0.00 0.00 23 1010.4
20260503211103 75 79 5.2 8.7 0.00 0.00 0.00 22 1010.5
20260503210603 75 68 1.7 6.1 0.00 0.00 0.00 23 1010.6
20260503210103 75 66 4.3 11.3 0.00 0.00 0.00 21 1010.7
20260503204603 76 24 1.7 7.0 0.00 0.00 0.00 23 1010.7
20260503204103 76 10 3.5 8.7 0.00 0.00 0.00 23 1010.7
20260503203604 76 320 1.7 5.2 0.00 0.00 0.00 23 1010.8
20260503203103 76 52 1.7 5.2 0.00 0.00 0.00 22 1010.9
20260503202603 76 39 4.3 8.7 0.00 0.00 0.00 22 1011.1
20260503202103 76 36 5.2 11.3 0.00 0.00 0.00 22 1011.2
20260503201603 76 39 0.9 6.1 0.00 0.00 0.00 21 1011.2
20260503201103 76 38 4.3 7.8 0.00 0.00 0.00 22 1011.3
20260503200603 76 51 4.3 10.4 0.00 0.00 0.00 23 1011.4
20260503195603 75 13 4.3 10.4 0.00 0.00 0.00 23 1011.3
20260503195103 75 50 2.6 8.7 0.00 0.00 0.00 24 1011.4
20260503194603 75 153 1.7 11.3 0.00 0.00 0.00 23 1011.5
20260503194104 75 54 5.2 11.3 0.00 0.00 0.00 23 1011.5
20260503193104 75 48 7.8 11.3 0.00 0.00 0.00 22 1011.6
20260503192603 75 49 2.6 10.4 0.00 0.00 0.00 21 1011.6
20260503192104 75 49 5.2 10.4 0.00 0.00 0.00 25 1011.6
20260503191603 75 30 2.6 7.8 0.00 0.00 0.00 22 1011.7
20260503191103 75 301 6.1 8.7 0.00 0.00 0.00 24 1011.8
20260503190604 75 310 6.1 8.7 0.00 0.00 0.00 26 1011.8
20260503185107 74 51 5.2 10.4 0.00 0.00 0.00 24 1012.0
20260503184603 74 101 2.6 8.7 0.00 0.00 0.00 24 1012.1
20260503183603 74 33 1.7 11.3 0.00 0.00 0.00 26 1012.4
20260503183103 74 43 6.1 11.3 0.00 0.00 0.00 24 1012.4
20260503182604 74 89 6.1 11.3 0.00 0.00 0.00 23 1012.4
20260503182103 73 65 6.1 11.3 0.00 0.00 0.00 24 1012.5
20260503181604 74 37 6.1 11.3 0.00 0.00 0.00 24 1012.5
20260503181103 73 22 2.6 7.0 0.00 0.00 0.00 27 1012.6
20260503180603 72 47 1.7 6.1 0.00 0.00 0.00 28 1012.8
20260503180103 72 46 4.3 10.4 0.00 0.00 0.00 25 1012.8
20260503175604 73 40 2.6 8.7 0.00 0.00 0.00 25 1012.9
20260503175103 72 41 4.3 10.4 0.00 0.00 0.00 26 1012.9